Regional Weather Roundup
Issued by NWS

Home | Current Version | Previous Version | Graphics & Text | Print | Product List | Glossary On
Versions: 1 2 3 4 5 6 7 8 9 10 11 12 13 14 15 16 17 18 19 20 21 22 23 24 25 26 27 28 29 30 31 32 33 34 35 36 37 38 39 40 41 42 43 44 45 46 47 48 49 50
000
ASUS43 KBIS 291910
RWRND

NORTH DAKOTA REGIONAL WEATHER ROUNDUP
NATIONAL WEATHER SERVICE BISMARCK ND
200 PM CDT SUN MAR 29 2015

NOTE: "FAIR" INDICATES FEW OR NO CLOUDS BELOW 12,000 FEET WITH NO
SIGNIFICANT WEATHER AND/OR OBSTRUCTIONS TO VISIBILITY.


NDZ001>003-009>011-017-292000-
NORTHWEST NORTH DAKOTA

CITY           SKY/WX    TMP DP  RH WIND       PRES   REMARKS
WILLISTON      SUNNY     56  37  49 W16       30.03F
MINOT          MOSUNNY   56  23  27 W24G32    29.97F
MINOT AFB      SUNNY     54  29  37 NW22G30   29.96F
$$

NDZ018>021-031>035-040>046-292000-
SOUTHWEST NORTH DAKOTA

CITY           SKY/WX    TMP DP  RH WIND       PRES   REMARKS
BISMARCK       SUNNY     56  23  27 NW12G30   30.05F
DICKINSON      MOSUNNY   54  34  46 W16       30.05F
GARRISON         N/A     54  32  43 W17G29    30.01F
$$

NDZ004>008-012>016-024-026-027-054-292000-
NORTHEAST NORTH DAKOTA

CITY           SKY/WX    TMP DP  RH WIND       PRES   REMARKS
GRAND FORKS    MOSUNNY   52  28  39 N28G36    29.86S
DEVILS LAKE    SUNNY     52  28  40 NW22G29   29.92S
$$

NDZ022-023-025-028>030-036>039-047>053-292000-
SOUTHEAST NORTH DAKOTA

CITY           SKY/WX    TMP DP  RH WIND       PRES   REMARKS
FARGO          NOT AVBL
JAMESTOWN      MOSUNNY   55  26  32 NW28G33   29.96R
$$



USA.gov is the U.S. government's official web portal to all federal, state and local government web resources and services.